Location: SE Lincoln, NE
(40.7805°N, 96.6275°W)
Time: 07:11:47
(UTC-05:00)

Daily predictions for brighter satellites

Satellite Brightness Start Highest point End
(mag) Time Altitude Azimuth Time Altitude Azimuth Time Altitude Azimuth
Cosmos 44 Rocket 3.5 20:34:18 10° NW 20:39:02 75° WSW 20:43:51 10° SSE
Cosmos 2151 Rocket 4.0 20:35:06 10° SSE 20:39:12 40° E 20:43:19 10° NNE
EXPRESS MD2 2.5 20:37:02 10° WSW 20:39:20 83° NNW 20:42:54 10° ENE
Cosmos 1954 Rocket 4.1 20:35:10 10° NNW 20:40:31 76° ENE 20:45:49 10° SSE
DELTA 2 R/B (1) 4.3 20:38:50 10° W 20:44:08 45° SSW 20:49:27 10° SE
ATLAS 3B R/B 3.9 20:42:19 10° NNW 20:47:54 26° NE 20:53:18 10° E
Meteor 1-19 Rocket 4.4 20:45:59 10° N 20:51:47 58° ENE 20:57:27 10° SSE
Okean 1 3.6 20:48:27 10° NNW 20:52:26 72° W 20:56:24 10° S
Cosmos 1536 Rocket 3.9 20:49:50 10° N 20:54:01 45° E 20:58:11 10° SSE
Cosmos 2360 Rocket 3.2 20:50:01 10° SSE 20:54:20 23° E 20:58:39 10° NE
Cosmos 1980 Rocket 3.4 20:49:51 10° SW 20:55:13 47° WNW 21:00:38 10° NNE
Cosmos 2026 Rocket 4.4 20:51:37 10° SSW 20:57:56 73° W 21:04:21 10° N
Cosmos 1939 Rocket 3.7 20:54:26 10° SE 20:57:58 32° ENE 21:01:30 10° N
Cosmos 1536 3.5 20:54:41 10° SSE 20:58:22 33° E 21:02:02 10° NNE
Lacrosse 5 rocket 2.4 20:55:00 10° WNW 20:58:25 36° SW 21:01:57 10° SSE
Cosmos 1741 Rocket 4.3 20:53:56 10° N 20:59:03 50° ENE 21:04:09 10° SE
USA 267 3.7 20:53:37 10° SSE 21:00:05 62° SW 21:06:36 10° NW
NOSS 2-3 (D) 3.9 20:56:06 10° SSW 21:00:35 55° ESE 21:05:45 10° NE
Envisat 3.1 20:55:55 10° SSE 21:00:52 57° ENE 21:05:51 10° N
H-2A R/B 4.1 21:10:06 10° ENE 21:10:30 10° ENE 21:10:55 10° NE
CZ-2D R/B 3.9 21:08:53 10° S 21:12:41 56° W 21:16:30 10° NNW
Cosmos 44 4.5 21:08:51 10° NW 21:12:56 36° WSW 21:17:10 10° S
CZ-4B DEB 4.4 21:15:44 15° E 21:16:11 16° ENE 21:18:01 10° NNE
Meteor 2-4 Rocket 3.7 21:13:13 10° N 21:18:46 68° E 21:24:28 10° SSE
ATLAS 2AS CENTAUR R/B 3.0 21:19:14 10° SSW 21:26:48 69° ESE 21:34:52 10° NE
Delta 2 Rocket 4.2 21:23:21 10° SW 21:26:58 32° SSE 21:28:55 22° ESE
USA 186 2.9 21:24:26 10° S 21:27:40 46° W 21:30:57 10° NNW
Cosmos 1110 Rocket 4.3 21:24:29 10° S 21:29:20 43° ESE 21:34:14 10° NNE
Helios 1B rocket 2.9 21:27:03 10° NNE 21:30:55 39° E 21:33:57 15° SSE
BREEZE M DEB (TANK) 3.6 21:21:33 10° SW 21:31:17 41° SSE 21:33:38 20° E
SPOT 5 4.4 21:33:36 17° E 21:34:57 19° ENE 21:38:14 10° NNE
NOSS 2-3 (E) 4.2 21:32:52 10° SW 21:37:30 69° NW 21:42:57 10° NNE
Lacrosse 5 1.8 21:32:29 10° SW 21:37:34 85° SE 21:42:40 10° NE
Cosmos 883 Rocket 4.4 21:34:21 10° N 21:40:30 73° E 21:45:59 13° SSE
Cosmos 1850 Rocket 4.3 21:35:22 10° NNW 21:40:40 67° WSW 21:45:34 12° S
Centaur D AC-29 4.2 21:35:39 10° SSW 21:40:47 13° S 21:43:39 10° SSE
Cosmos 1331 Rocket 4.1 21:37:22 10° S 21:42:21 51° ESE 21:47:25 10° NNE
SL-8 R/B 4.4 21:40:50 10° NW 21:45:27 45° NNE 21:48:14 22° E
SeaSat 1 2.6 21:42:38 10° NNE 21:47:35 74° WNW 21:52:29 10° SW
Atlas Centaur 2 3.8 21:40:43 10° WSW 21:47:49 32° SSW 21:51:30 21° SSE
ARGOS 3.8 21:49:54 28° ESE 21:51:54 38° ENE 21:56:49 10° N
Okean 1 Rocket 3.1 21:50:09 10° SSW 21:54:29 77° W 21:58:54 10° N
Cosmos 220 Rocket 4.0 21:50:47 10° NNW 21:55:07 84° WSW 21:57:12 30° SSE
Cosmos 1300 Rocket 4.5 21:51:11 10° SSW 21:55:20 48° W 21:59:32 10° N
Tiangong 1 1.5 21:55:25 10° W 21:57:45 42° SW 21:57:45 42° SW
YAOGAN 6 2.9 21:56:40 26° S 21:58:29 60° W 22:01:59 10° NNW
Cosmos 1607 4.1 21:52:02 10° NW 21:58:30 77° WSW 22:02:27 25° SSE
Cosmos 1025 Rocket 2.9 21:54:13 10° N 21:58:30 76° E 22:00:09 36° SSE
GPS 2-05 Rocket1 4.5 21:56:47 10° WSW 21:59:09 21° SSW 21:59:09 21° SSW
Okean 2 3.3 21:55:44 10° N 21:59:49 66° E 22:00:54 45° SE
Cosmos 2263 Rocket 2.7 21:56:05 10° NNW 22:01:40 57° WSW 22:05:41 19° S
Cosmos 2278 Rocket 4.1 22:01:41 10° NNE 22:04:59 15° NE 22:06:39 14° ENE
Cosmos 2322 Rocket 3.8 22:00:13 10° SW 22:05:28 37° WNW 22:10:45 10° N
Okean 1-7 Rocket 3.5 22:04:08 10° N 22:08:39 88° W 22:10:26 37° S
Cosmos 1844 Rocket 3.5 22:03:27 10° N 22:08:41 37° ENE 22:10:10 32° E
Abrixas rocket 3.9 22:06:23 10° NW 22:09:11 25° NNE 22:09:53 23° NE
Resurs 01 Rocket 4.3 22:06:34 10° SW 22:09:33 18° W 22:12:34 10° NW
Cosmos 1818 3.9 22:10:06 41° ESE 22:10:15 41° ESE 22:15:19 10° NE
SPOT 1/Viking Rocket 4.3 22:10:41 33° E 22:11:31 35° ENE 22:16:13 10° N
Cosmos 2237 4.1 22:06:08 10° S 22:11:45 66° ESE 22:17:24 10° NNE
Cosmos 1515 3.5 22:08:45 10° N 22:12:34 79° E 22:12:54 71° SE
Cosmos 1975 3.4 22:16:24 42° ENE 22:16:24 42° ENE 22:19:31 10° NNE
Terra 3.6 22:16:55 18° ENE 22:16:55 18° ENE 22:19:55 10° NNE
SL-16 R/B 4.1 22:12:54 10° WSW 22:17:50 30° WNW 22:22:48 10° N
Helios 1A 4.0 22:18:03 23° SSW 22:20:15 43° W 22:24:19 10° NNW
BREEZE-M DEB 4.2 22:13:00 10° WNW 22:21:11 39° N 22:22:33 29° NE
MetOp-B 4.0 22:19:30 43° SSE 22:21:19 81° ENE 22:26:42 10° NNW
NOSS 3-2 (A) 4.5 22:15:10 10° NNW 22:22:23 48° NE 22:25:38 32° E
Cosmos 2219 Rocket 3.2 22:24:26 29° ENE 22:24:26 29° ENE 22:27:53 10° NE
Cosmos 2315 Rocket 4.2 22:18:02 10° NNW 22:24:16 70° W 22:28:16 23° S
USA 238 DEB 3.7 22:17:34 10° NNW 22:24:43 79° NE 22:27:24 42° SE
USA 238 3.7 22:17:41 10° NNW 22:24:49 78° NE 22:27:30 42° SE
Meteor 1-29 3.9 22:23:41 10° N 22:26:59 46° WNW 22:27:46 38° WSW
Cosmos 1500 3.2 22:27:02 81° WSW 22:27:06 81° W 22:31:00 10° N
Meteor 1-12 Rocket 4.2 22:26:34 50° SE 22:27:45 61° E 22:33:18 10° NNE
ERS-1 Rocket 3.1 22:26:41 41° S 22:28:23 73° WSW 22:33:26 10° NNW
Cosmos 2322 3.9 22:23:16 10° SSW 22:28:54 71° WNW 22:34:34 10° NNE
USA 245 3.7 22:28:30 64° ESE 22:29:03 71° ENE 22:33:18 10° N
Cosmos 2360 Rocket 3.1 22:32:31 10° SW 22:37:57 48° WNW 22:43:24 10° NNE
ATLAS 3B R/B 2.6 22:32:34 10° NW 22:39:16 74° WSW 22:41:11 48° SSE
COSMOS 2428 2.6 22:37:39 40° S 22:39:50 79° ESE 22:45:35 10° NNE
Cosmos 1745 Rocket 3.8 22:45:48 61° SE 22:46:35 67° E 22:52:41 10° NNE
Cosmos 1844 3.8 22:41:48 10° NNW 22:47:25 57° ENE 22:47:46 56° ENE
Cosmos 1892 Rocket 3.7 22:43:19 10° NNW 22:47:37 70° W 22:47:37 70° W
H-2A R/B 1.8 22:49:01 82° E 22:49:08 82° ENE 22:54:07 10° NNW
Cosmos 1437 Rocket 4.5 22:54:37 26° NNE 22:54:37 26° NNE 22:56:29 10° NNE
Cosmos 1238 Rocket 4.2 22:46:08 10° NNW 22:52:49 71° W 22:54:49 45° SSW
Cosmos 2333 Rocket 3.1 22:55:01 34° ENE 22:55:01 34° ENE 22:58:29 10° NE
Cosmos 2333 4.2 22:58:36 47° SW 23:00:15 77° WNW 23:05:54 10° NNE
Cosmos 1544 Rocket 4.1 23:01:28 57° WNW 23:01:28 57° WNW 23:05:37 10° N
NOSS 3-2 (C) 4.2 22:54:10 10° NNW 23:01:39 62° NE 23:03:28 50° E
Cosmos 1486 Rocket 4.3 23:01:16 10° NNW 23:06:24 56° WSW 23:06:31 56° WSW
Cosmos 2237 Rocket 3.7 23:12:24 25° NE 23:12:24 25° NE 23:14:51 10° NE
Cosmos 1386 Rocket 4.3 23:10:15 81° ESE 23:10:24 81° E 23:16:42 10° N
SPOT 5 3.6 23:12:52 47° W 23:12:52 47° W 23:17:14 10° NNW
Cosmos 1455 Rocket 4.0 23:14:10 46° NW 23:14:10 46° NW 23:17:58 10° N
Lacrosse 5 4.1 23:17:02 10° W 23:21:06 23° NNW 23:25:10 10° NNE
NOSS 3-4 (A) 3.5 23:28:47 77° NNE 23:28:47 77° NNE 23:34:47 10° NE
NOSS 3-4 (C) 3.5 23:28:58 75° NNE 23:28:58 75° NNE 23:34:53 10° NE
CENTAUR R/B 3.8 23:21:17 10° NNW 23:28:38 42° NE 23:30:30 37° ENE
Nadezhda 1 Rocket 4.4 23:31:13 10° NNW 23:37:23 57° W 23:37:46 56° WSW
Cosmos 2278 Rocket 2.8 23:44:09 10° NNW 23:48:29 54° NNW 23:48:29 54° NNW
Cosmos 1844 Rocket 4.0 23:47:30 10° NW 23:51:49 31° W 23:51:49 31° W
Terra 3.4 23:55:49 33° NW 23:55:49 33° NW 23:58:41 10° NNW
